﻿_id,日時,平均風速(m/s),平均風向,最大瞬間風速(m/s),最大風速時風向,気温(℃),湿度(%),10分間移動積算雨量(mm),1時間移動積算雨量(mm),日雨量(mm),累計雨量(mm),日射(日積算)(MJ/m2),日照(日積算)(min),現地気圧(hPa),海面気圧(hPa)
1,2023-09-25T00:00:00,1.8,北北東,2.6,北東,19.8,89.6,0,0,0,0,18.89,580,1006.2,1019.9
2,2023-09-25T00:01:00,1.8,北北東,2.6,北東,19.7,89.4,0,0,0,0,0,0,1006.2,1019.9
3,2023-09-25T00:02:00,1.9,北北東,3.2,北,19.8,89.8,0,0,0,0,0,0,1006.2,1019.9
4,2023-09-25T00:03:00,1.9,北北東,3.2,北,20.1,90.7,0,0,0,0,0,0,1006.2,1019.9
5,2023-09-25T00:04:00,1.8,北北東,3.2,北,19.9,90.4,0,0,0,0,0,0,1006.2,1019.9
6,2023-09-25T00:05:00,1.8,北北東,3.2,北,19.9,90.1,0,0,0,0,0,0,1006.2,1019.9
7,2023-09-25T00:06:00,1.7,北北東,3.2,北,19.8,90,0,0,0,0,0,0,1006.2,1019.9
8,2023-09-25T00:07:00,1.7,北北東,3.2,北,19.7,89.5,0,0,0,0,0,0,1006.2,1019.9
9,2023-09-25T00:08:00,1.8,北北東,3.2,北,19.6,89.4,0,0,0,0,0,0,1006.1,1019.8
10,2023-09-25T00:09:00,1.8,北東,3.5,北東,19.7,89.9,0,0,0,0,0,0,1006.1,1019.8
11,2023-09-25T00:10:00,1.9,北東,3.6,北東,19.5,90,0,0,0,0,0,0,1006.1,1019.8
12,2023-09-25T00:11:00,2,北東,3.6,北東,19.9,90.9,0,0,0,0,0,0,1006.1,1019.8
13,2023-09-25T00:12:00,2,北東,3.6,北東,19.9,91.1,0,0,0,0,0,0,1006.1,1019.8
14,2023-09-25T00:13:00,2.1,北東,3.6,北東,20,90.7,0,0,0,0,0,0,1006.1,1019.8
15,2023-09-25T00:14:00,2.1,北東,3.6,北東,19.9,90.4,0,0,0,0,0,0,1006,1019.7
16,2023-09-25T00:15:00,2.2,北東,3.6,北東,19.9,90.3,0,0,0,0,0,0,1006,1019.7
17,2023-09-25T00:16:00,2.3,北東,3.6,北東,19.9,89.9,0,0,0,0,0,0,1006,1019.7
18,2023-09-25T00:17:00,2.3,北東,3.6,北東,20,89.8,0,0,0,0,0,0,1005.9,1019.6
19,2023-09-25T00:18:00,2.3,北東,3.6,北東,20,89.8,0,0,0,0,0,0,1005.9,1019.6
20,2023-09-25T00:19:00,2.2,北東,3.6,北東,19.8,89.5,0,0,0,0,0,0,1005.9,1019.6
21,2023-09-25T00:20:00,2.2,北東,3.4,北北東,19.7,88.9,0,0,0,0,0,0,1005.9,1019.6
22,2023-09-25T00:21:00,2.1,北東,3.2,北北東,19.5,89.2,0,0,0,0,0,0,1005.9,1019.6
23,2023-09-25T00:22:00,2.1,北東,3.1,北東,19.6,89.4,0,0,0,0,0,0,1005.8,1019.5
24,2023-09-25T00:23:00,2,北東,3.1,北東,19.4,89.7,0,0,0,0,0,0,1005.8,1019.5
25,2023-09-25T00:24:00,2,北東,3,北東,19.5,90.4,0,0,0,0,0,0,1005.8,1019.5
26,2023-09-25T00:25:00,1.8,北東,3,北東,19.3,90.2,0,0,0,0,0,0,1005.8,1019.5
27,2023-09-25T00:26:00,1.7,北北東,3,北東,19.4,90.7,0,0,0,0,0,0,1005.8,1019.5
28,2023-09-25T00:27:00,1.7,北北東,3,北東,19.5,91.4,0,0,0,0,0,0,1005.8,1019.5
29,2023-09-25T00:28:00,1.6,北北東,3,北東,19.4,91.5,0,0,0,0,0,0,1005.8,1019.5
30,2023-09-25T00:29:00,1.5,北北東,3,北東,19.4,91.4,0,0,0,0,0,0,1005.8,1019.5
31,2023-09-25T00:30:00,1.4,北,3,北東,19.4,91.6,0,0,0,0,0,0,1005.8,1019.5
32,2023-09-25T00:31:00,1.4,北,3,北東,19.4,91.6,0,0,0,0,0,0,1005.7,1019.4
33,2023-09-25T00:32:00,1.3,北,3,北東,19.3,91.7,0,0,0,0,0,0,1005.8,1019.5
34,2023-09-25T00:33:00,1.3,北北西,3,北北東,19.3,91.7,0,0,0,0,0,0,1005.8,1019.5
35,2023-09-25T00:34:00,1.3,北北西,3,北北東,19.3,92.1,0,0,0,0,0,0,1005.8,1019.5
36,2023-09-25T00:35:00,1.3,北北西,3,北北東,19.3,92.2,0,0,0,0,0,0,1005.8,1019.5
37,2023-09-25T00:36:00,1.3,北北西,3,北北東,19.3,92.2,0,0,0,0,0,0,1005.7,1019.4
38,2023-09-25T00:37:00,1.2,北北西,2.1,西北西,19.3,92.4,0,0,0,0,0,0,1005.7,1019.4
39,2023-09-25T00:38:00,1.1,北北西,2.1,西北西,19.4,92.5,0,0,0,0,0,0,1005.7,1019.4
40,2023-09-25T00:39:00,1.1,北北西,2.1,西北西,19.4,92.8,0,0,0,0,0,0,1005.7,1019.4
41,2023-09-25T00:40:00,1,北北西,2.1,西北西,19.5,92.7,0,0,0,0,0,0,1005.7,1019.4
42,2023-09-25T00:41:00,1,北北西,2.1,西北西,19.6,92.9,0,0,0,0,0,0,1005.7,1019.4
43,2023-09-25T00:42:00,0.9,北北西,2.1,西北西,19.4,92.5,0,0,0,0,0,0,1005.7,1019.4
44,2023-09-25T00:43:00,0.8,北北西,2.1,西北西,19.2,91.6,0,0,0,0,0,0,1005.7,1019.4
45,2023-09-25T00:44:00,0.8,北北西,2,北西,19.2,91.7,0,0,0,0,0,0,1005.6,1019.3
46,2023-09-25T00:45:00,0.7,北北西,1.9,西北西,19.4,92.1,0,0,0,0,0,0,1005.7,1019.4
47,2023-09-25T00:46:00,0.8,北西,1.9,西北西,19.2,92.2,0,0,0,0,0,0,1005.7,1019.4
48,2023-09-25T00:47:00,0.8,北西,1.9,西北西,19.1,92,0,0,0,0,0,0,1005.7,1019.4
49,2023-09-25T00:48:00,0.8,北西,1.9,西北西,19,91.9,0,0,0,0,0,0,1005.7,1019.4
50,2023-09-25T00:49:00,0.9,北西,1.9,西北西,19.2,92.5,0,0,0,0,0,0,1005.7,1019.4
51,2023-09-25T00:50:00,1,北西,1.9,西北西,19.1,92.5,0,0,0,0,0,0,1005.7,1019.4
52,2023-09-25T00:51:00,1,北西,1.9,西北西,19.2,92.8,0,0,0,0,0,0,1005.6,1019.3
53,2023-09-25T00:52:00,1,北西,1.9,西北西,19.4,93.3,0,0,0,0,0,0,1005.6,1019.3
54,2023-09-25T00:53:00,1.1,北西,2,北西,19.4,93.1,0,0,0,0,0,0,1005.6,1019.3
55,2023-09-25T00:54:00,1.1,北西,2.3,西北西,19.3,92.7,0,0,0,0,0,0,1005.6,1019.3
56,2023-09-25T00:55:00,1.2,北西,2.3,西北西,19.3,92.7,0,0,0,0,0,0,1005.6,1019.3
57,2023-09-25T00:56:00,1.3,北西,2.5,西北西,19.2,92.5,0,0,0,0,0,0,1005.7,1019.4
58,2023-09-25T00:57:00,1.4,北西,2.5,西北西,19.3,92.4,0,0,0,0,0,0,1005.7,1019.4
59,2023-09-25T00:58:00,1.3,北西,2.5,西北西,19.2,92.5,0,0,0,0,0,0,1005.7,1019.4
60,2023-09-25T00:59:00,1.3,北西,2.5,西北西,19.3,92.5,0,0,0,0,0,0,1005.6,1019.3
61,2023-09-25T01:00:00,1.3,北西,2.5,西北西,19.4,92.6,0,0,0,0,0,0,1005.7,1019.4
62,2023-09-25T01:01:00,1.4,北西,2.5,西北西,19.3,92.6,0,0,0,0,0,0,1005.7,1019.4
63,2023-09-25T01:02:00,1.4,北西,2.5,西北西,19.3,92.4,0,0,0,0,0,0,1005.7,1019.4
64,2023-09-25T01:03:00,1.4,北西,2.5,西北西,19.2,92.4,0,0,0,0,0,0,1005.6,1019.3
65,2023-09-25T01:04:00,1.4,北西,2.5,西北西,19.3,92.4,0,0,0,0,0,0,1005.6,1019.3
66,2023-09-25T01:05:00,1.5,北西,2.5,西北西,19.3,92.4,0,0,0,0,0,0,1005.7,1019.4
67,2023-09-25T01:06:00,1.5,北西,2.4,西北西,19.3,92.6,0,0,0,0,0,0,1005.7,1019.4
68,2023-09-25T01:07:00,1.5,北西,2.3,北西,19.3,92.6,0,0,0,0,0,0,1005.7,1019.4
69,2023-09-25T01:08:00,1.6,北西,2.3,北西,19.1,92.4,0,0,0,0,0,0,1005.8,1019.5
70,2023-09-25T01:09:00,1.6,北西,2.3,北西,19.1,92.3,0,0,0,0,0,0,1005.8,1019.5
71,2023-09-25T01:10:00,1.6,北西,2.3,北西,19.1,92.4,0,0,0,0,0,0,1005.8,1019.5
72,2023-09-25T01:11:00,1.5,北西,2.2,北西,19.2,92.7,0,0,0,0,0,0,1005.8,1019.5
73,2023-09-25T01:12:00,1.5,北西,2.2,北西,19.6,93.7,0,0,0,0,0,0,1005.8,1019.5
74,2023-09-25T01:13:00,1.5,北西,2.4,西北西,19.5,93.6,0,0,0,0,0,0,1005.8,1019.5
75,2023-09-25T01:14:00,1.6,北西,2.4,西北西,19.5,92.9,0,0,0,0,0,0,1005.8,1019.5
76,2023-09-25T01:15:00,1.6,北西,2.4,西北西,19.4,92.4,0,0,0,0,0,0,1005.8,1019.5
77,2023-09-25T01:16:00,1.5,北西,2.4,西北西,19.2,91.7,0,0,0,0,0,0,1005.8,1019.5
78,2023-09-25T01:17:00,1.4,北西,2.4,西北西,19.3,91.8,0,0,0,0,0,0,1005.8,1019.5
79,2023-09-25T01:18:00,1.3,北西,2.4,西北西,19.3,91.7,0,0,0,0,0,0,1005.8,1019.5
80,2023-09-25T01:19:00,1.2,北西,2.4,西北西,19.3,92,0,0,0,0,0,0,1005.8,1019.5
81,2023-09-25T01:20:00,1.2,北西,2.4,西北西,19.6,92.4,0,0,0,0,0,0,1005.8,1019.5
82,2023-09-25T01:21:00,1.3,北西,2.4,西北西,19.4,92.3,0,0,0,0,0,0,1005.8,1019.5
83,2023-09-25T01:22:00,1.3,北西,2.4,西北西,19.3,91.8,0,0,0,0,0,0,1005.8,1019.5
84,2023-09-25T01:23:00,1.1,北西,2.3,西北西,19.3,91.6,0,0,0,0,0,0,1005.8,1019.5
85,2023-09-25T01:24:00,1,北北西,2.3,西北西,19.2,91.9,0,0,0,0,0,0,1005.8,1019.5
86,2023-09-25T01:25:00,0.8,北北西,2.1,北西,19.2,92,0,0,0,0,0,0,1005.8,1019.5
87,2023-09-25T01:26:00,0.8,北北西,2.1,北西,19.3,92.1,0,0,0,0,0,0,1005.8,1019.5
88,2023-09-25T01:27:00,0.8,北北西,2.1,北西,19.3,92.3,0,0,0,0,0,0,1005.8,1019.5
89,2023-09-25T01:28:00,0.9,北北西,2.1,北西,19.4,92.5,0,0,0,0,0,0,1005.8,1019.5
90,2023-09-25T01:29:00,0.9,北北西,2.1,北西,19.3,92.5,0,0,0,0,0,0,1005.8,1019.5
91,2023-09-25T01:30:00,0.9,北北西,2.1,北西,19.3,92.1,0,0,0,0,0,0,1005.8,1019.5
92,2023-09-25T01:31:00,0.8,北北西,2.1,北西,19.3,92.2,0,0,0,0,0,0,1005.8,1019.5
93,2023-09-25T01:32:00,0.7,北北西,2.1,北,19.4,92.4,0,0,0,0,0,0,1005.8,1019.5
94,2023-09-25T01:33:00,0.8,北北西,2.1,北,19.2,92.2,0,0,0,0,0,0,1005.8,1019.5
95,2023-09-25T01:34:00,0.9,北北西,2.1,北,19.5,92.8,0,0,0,0,0,0,1005.8,1019.5
96,2023-09-25T01:35:00,0.9,北北西,2.1,北,19.3,92.2,0,0,0,0,0,0,1005.8,1019.5
97,2023-09-25T01:36:00,0.9,北北西,2.1,北,19.2,91.9,0,0,0,0,0,0,1005.8,1019.5
98,2023-09-25T01:37:00,1,北北西,2.1,北,19.2,92.1,0,0,0,0,0,0,1005.8,1019.5
99,2023-09-25T01:38:00,1,北,2.4,北北東,19.2,92.2,0,0,0,0,0,0,1005.8,1019.5
100,2023-09-25T01:39:00,1.1,北,2.4,北北東,19.2,92.3,0,0,0,0,0,0,1005.9,1019.6
101,2023-09-25T01:40:00,1.1,北,2.7,北,19.1,92.5,0,0,0,0,0,0,1005.8,1019.5
102,2023-09-25T01:41:00,1.2,北,2.7,北,19.1,92.3,0,0,0,0,0,0,1005.8,1019.5
103,2023-09-25T01:42:00,1.3,北,2.7,北,19.1,92.6,0,0,0,0,0,0,1005.8,1019.5
104,2023-09-25T01:43:00,1.2,北,2.7,北,18.9,92,0,0,0,0,0,0,1005.8,1019.5
105,2023-09-25T01:44:00,1.2,北,2.7,北,18.9,92.5,0,0,0,0,0,0,1005.8,1019.5
106,2023-09-25T01:45:00,1.2,北,2.7,北,18.9,92.7,0,0,0,0,0,0,1005.8,1019.5
107,2023-09-25T01:46:00,1.1,北,2.7,北,18.9,93.1,0,0,0,0,0,0,1005.8,1019.5
108,2023-09-25T01:47:00,1,北,2.7,北,19.1,93.5,0,0,0,0,0,0,1005.8,1019.5
109,2023-09-25T01:48:00,0.9,北,2.7,北,19,93.4,0,0,0,0,0,0,1005.9,1019.6
110,2023-09-25T01:49:00,0.9,北,2.7,北,19.1,93.5,0,0,0,0,0,0,1005.9,1019.6
111,2023-09-25T01:50:00,0.9,北北西,2.3,北北東,19.2,93.6,0,0,0,0,0,0,1005.9,1019.6
112,2023-09-25T01:51:00,0.8,北北西,2,北北東,19.1,93.5,0,0,0,0,0,0,1005.9,1019.6
113,2023-09-25T01:52:00,0.6,北北西,1.7,北西,19,93,0,0,0,0,0,0,1005.8,1019.5
114,2023-09-25T01:53:00,0.7,北北西,1.7,北西,19.1,93.1,0,0,0,0,0,0,1005.8,1019.5
115,2023-09-25T01:54:00,0.7,北北西,1.8,北,19.2,93.3,0,0,0,0,0,0,1005.8,1019.5
116,2023-09-25T01:55:00,0.8,北北西,1.8,北,19.2,93.5,0,0,0,0,0,0,1005.7,1019.4
117,2023-09-25T01:56:00,0.9,北,1.8,北,19.1,93.2,0,0,0,0,0,0,1005.7,1019.4
118,2023-09-25T01:57:00,1,北,1.8,北,19.2,93.1,0,0,0,0,0,0,1005.7,1019.4
119,2023-09-25T01:58:00,1,北,1.8,北,19.2,92.8,0,0,0,0,0,0,1005.7,1019.4
120,2023-09-25T01:59:00,1.1,北,1.8,北,19.3,93.1,0,0,0,0,0,0,1005.7,1019.4
121,2023-09-25T02:00:00,1.1,北北東,1.8,北,19.4,93.1,0,0,0,0,0,0,1005.7,1019.4
122,2023-09-25T02:01:00,1.2,北北東,1.8,北,19.5,93.1,0,0,0,0,0,0,1005.8,1019.5
123,2023-09-25T02:02:00,1.2,北北東,1.8,北,19.4,93,0,0,0,0,0,0,1005.8,1019.5
124,2023-09-25T02:03:00,1.2,北北東,1.8,北,19.3,92.4,0,0,0,0,0,0,1005.8,1019.5
125,2023-09-25T02:04:00,1.1,北北東,1.8,北北東,19.5,92.4,0,0,0,0,0,0,1005.8,1019.5
126,2023-09-25T02:05:00,1,北,1.8,北北東,19.3,92.1,0,0,0,0,0,0,1005.8,1019.5
127,2023-09-25T02:06:00,1,北,1.8,北北東,19.2,91.4,0,0,0,0,0,0,1005.8,1019.5
128,2023-09-25T02:07:00,0.9,北,1.8,北北東,19.4,92.1,0,0,0,0,0,0,1005.8,1019.5
129,2023-09-25T02:08:00,0.9,北北西,1.8,北北東,19.3,92.1,0,0,0,0,0,0,1005.8,1019.5
130,2023-09-25T02:09:00,0.9,北北西,1.8,北北東,19.4,92,0,0,0,0,0,0,1005.8,1019.5
131,2023-09-25T02:10:00,0.8,北北西,1.8,北北東,19.3,92.3,0,0,0,0,0,0,1005.8,1019.5
132,2023-09-25T02:11:00,0.8,北北西,1.8,北北東,19.6,92.6,0,0,0,0,0,0,1005.8,1019.5
133,2023-09-25T02:12:00,0.8,北北西,2,北西,19.5,92.6,0,0,0,0,0,0,1005.8,1019.5
134,2023-09-25T02:13:00,0.9,北西,2,北西,19.4,92,0,0,0,0,0,0,1005.8,1019.5
135,2023-09-25T02:14:00,1,北西,2,北西,19.3,91.7,0,0,0,0,0,0,1005.9,1019.6
136,2023-09-25T02:15:00,1,北西,2,北西,19.4,91.9,0,0,0,0,0,0,1005.8,1019.5
137,2023-09-25T02:16:00,1.1,北西,2,北西,19.2,91.7,0,0,0,0,0,0,1005.9,1019.6
138,2023-09-25T02:17:00,1,北西,2,北西,19.3,91.6,0,0,0,0,0,0,1005.9,1019.6
139,2023-09-25T02:18:00,1,北北西,2,北西,19.3,91.9,0,0,0,0,0,0,1005.9,1019.6
140,2023-09-25T02:19:00,1.1,北北西,2.3,北北東,19.3,92.1,0,0,0,0,0,0,1005.9,1019.6
141,2023-09-25T02:20:00,1.2,北北西,2.7,北北東,19.4,92.4,0,0,0,0,0,0,1005.9,1019.6
142,2023-09-25T02:21:00,1.3,北北西,2.7,北北東,19.5,92.5,0,0,0,0,0,0,1005.9,1019.6
143,2023-09-25T02:22:00,1.3,北,2.7,北北東,19.3,92.3,0,0,0,0,0,0,1005.9,1019.6
144,2023-09-25T02:23:00,1.4,北,2.7,北北東,19.5,92.3,0,0,0,0,0,0,1005.8,1019.5
145,2023-09-25T02:24:00,1.5,北北東,2.7,北北東,19.6,92.5,0,0,0,0,0,0,1005.8,1019.5
146,2023-09-25T02:25:00,1.5,北北東,2.7,北北東,19.4,92,0,0,0,0,0,0,1005.8,1019.5
147,2023-09-25T02:26:00,1.5,北北東,2.7,北北東,19.4,91.4,0,0,0,0,0,0,1005.8,1019.5
148,2023-09-25T02:27:00,1.5,北北東,2.7,北北東,19.4,91.6,0,0,0,0,0,0,1005.9,1019.6
149,2023-09-25T02:28:00,1.6,北北東,2.7,北北東,19.3,91.4,0,0,0,0,0,0,1005.9,1019.6
150,2023-09-25T02:29:00,1.6,北北東,2.7,北北東,19.3,91.5,0,0,0,0,0,0,1005.9,1019.6
151,2023-09-25T02:30:00,1.5,北北東,2.7,北北東,19.3,91.8,0,0,0,0,0,0,1005.9,1019.6
152,2023-09-25T02:31:00,1.5,北北東,2.7,北北東,19.3,92,0,0,0,0,0,0,1005.9,1019.6
153,2023-09-25T02:32:00,1.4,北北東,2.7,北北東,19.3,92.3,0,0,0,0,0,0,1005.9,1019.6
154,2023-09-25T02:33:00,1.4,北北東,2.7,北北東,19.4,92.3,0,0,0,0,0,0,1005.9,1019.6
155,2023-09-25T02:34:00,1.4,北北東,2.7,北北東,19.5,92.6,0,0,0,0,0,0,1005.9,1019.6
156,2023-09-25T02:35:00,1.4,北北東,2.7,北北東,19.5,92.4,0,0,0,0,0,0,1005.9,1019.6
157,2023-09-25T02:36:00,1.5,北北東,2.7,北北東,19.5,92.2,0,0,0,0,0,0,1005.9,1019.6
158,2023-09-25T02:37:00,1.7,北北東,2.7,北北東,19.5,92,0,0,0,0,0,0,1005.8,1019.5
159,2023-09-25T02:38:00,1.7,北北東,2.7,北北東,19.4,91.8,0,0,0,0,0,0,1005.8,1019.5
160,2023-09-25T02:39:00,1.8,北北東,2.7,北北東,19.5,92.2,0,0,0,0,0,0,1005.8,1019.5
161,2023-09-25T02:40:00,1.9,北北東,2.9,北東,19.5,92.3,0,0,0,0,0,0,1005.8,1019.5
162,2023-09-25T02:41:00,2,北北東,3,北東,19.6,92.1,0,0,0,0,0,0,1005.8,1019.5
163,2023-09-25T02:42:00,2,北東,3,北東,19.5,92.1,0,0,0,0,0,0,1005.8,1019.5
164,2023-09-25T02:43:00,2.1,北東,3,北東,19.3,91.3,0,0,0,0,0,0,1005.8,1019.5
165,2023-09-25T02:44:00,2.1,北東,3,北東,19.4,91.3,0,0,0,0,0,0,1005.8,1019.5
166,2023-09-25T02:45:00,1.9,北東,3,北東,19.5,91.6,0,0,0,0,0,0,1005.8,1019.5
167,2023-09-25T02:46:00,1.8,北東,3,北東,19.4,91.7,0,0,0,0,0,0,1005.8,1019.5
168,2023-09-25T02:47:00,1.7,北東,3,北東,19.5,91.8,0,0,0,0,0,0,1005.8,1019.5
169,2023-09-25T02:48:00,1.5,北東,3,北東,19.6,91.9,0,0,0,0,0,0,1005.8,1019.5
170,2023-09-25T02:49:00,1.4,北東,3,北東,19.4,91.7,0,0,0,0,0,0,1005.8,1019.5
171,2023-09-25T02:50:00,1.2,北北東,3,北東,19.6,91.9,0,0,0,0,0,0,1005.8,1019.5
172,2023-09-25T02:51:00,1.1,北北東,2.6,北東,19.5,91.8,0,0,0,0,0,0,1005.7,1019.4
173,2023-09-25T02:52:00,1,北北東,2.5,北東,19.6,91.6,0,0,0,0,0,0,1005.8,1019.5
174,2023-09-25T02:53:00,0.9,北,2.3,北東,19.5,91.6,0,0,0,0,0,0,1005.7,1019.4
175,2023-09-25T02:54:00,0.8,北,1.8,北西,19.5,91.6,0,0,0,0,0,0,1005.8,1019.5
176,2023-09-25T02:55:00,0.8,北,2,北西,19.4,91.2,0,0,0,0,0,0,1005.8,1019.5
177,2023-09-25T02:56:00,0.8,北北西,2,北西,19.4,91.5,0,0,0,0,0,0,1005.8,1019.5
178,2023-09-25T02:57:00,0.9,北北西,2,北西,19.4,91.8,0,0,0,0,0,0,1005.8,1019.5
179,2023-09-25T02:58:00,0.9,北北西,2,北西,19.5,92.2,0,0,0,0,0,0,1005.8,1019.5
180,2023-09-25T02:59:00,0.9,北北西,2,北西,19.5,92.3,0,0,0,0,0,0,1005.8,1019.5
181,2023-09-25T03:00:00,0.9,北北西,2,北西,19.5,92,0,0,0,0,0,0,1005.8,1019.5
182,2023-09-25T03:01:00,0.9,北北西,2,北西,19.5,92,0,0,0,0,0,0,1005.8,1019.5
183,2023-09-25T03:02:00,1,北北西,2.4,北北東,19.5,91.8,0,0,0,0,0,0,1005.8,1019.5
184,2023-09-25T03:03:00,1,北北西,2.6,北,19.5,91.9,0,0,0,0,0,0,1005.8,1019.5
185,2023-09-25T03:04:00,1.1,北北西,2.6,北,19.7,92.3,0,0,0,0,0,0,1005.7,1019.4
186,2023-09-25T03:05:00,1.2,北,2.7,東北東,19.6,91.9,0,0,0,0,0,0,1005.7,1019.4
187,2023-09-25T03:06:00,1.3,北,3.6,北東,19.6,91.6,0,0,0,0,0,0,1005.7,1019.4
188,2023-09-25T03:07:00,1.3,北,3.6,北東,19.6,91.4,0,0,0,0,0,0,1005.7,1019.4
189,2023-09-25T03:08:00,1.4,北北東,3.6,北東,19.7,91.4,0,0,0,0,0,0,1005.7,1019.4
190,2023-09-25T03:09:00,1.4,北北東,3.6,北東,19.6,91.3,0,0,0,0,0,0,1005.7,1019.4
191,2023-09-25T03:10:00,1.5,北北東,3.6,北東,19.8,91.5,0,0,0,0,0,0,1005.7,1019.4
192,2023-09-25T03:11:00,1.5,北北東,3.6,北東,19.8,91.3,0,0,0,0,0,0,1005.7,1019.4
193,2023-09-25T03:12:00,1.4,北北東,3.6,北東,19.8,91,0,0,0,0,0,0,1005.7,1019.4
194,2023-09-25T03:13:00,1.3,北北東,3.6,北東,19.8,91.1,0,0,0,0,0,0,1005.6,1019.3
195,2023-09-25T03:14:00,1.2,北北東,3.6,北東,19.9,90.7,0,0,0,0,0,0,1005.7,1019.4
196,2023-09-25T03:15:00,1.1,北北東,3.6,北東,19.6,90.3,0,0,0,0,0,0,1005.6,1019.3
197,2023-09-25T03:16:00,0.9,北,2.2,北東,19.5,89.7,0,0,0,0,0,0,1005.6,1019.3
198,2023-09-25T03:17:00,0.9,北北西,1.9,北東,19.4,90.1,0,0,0,0,0,0,1005.6,1019.3
199,2023-09-25T03:18:00,0.8,北北西,1.9,北東,19.4,90.5,0,0,0,0,0,0,1005.6,1019.3
200,2023-09-25T03:19:00,0.8,北北西,1.9,北東,19.4,91,0,0,0,0,0,0,1005.6,1019.3
201,2023-09-25T03:20:00,0.6,北西,1.6,北東,19.5,91.8,0,0,0,0,0,0,1005.6,1019.3
202,2023-09-25T03:21:00,0.5,北西,1.2,西北西,19.4,91.8,0,0,0,0,0,0,1005.6,1019.3
203,2023-09-25T03:22:00,0.5,北西,1.2,西北西,19.3,91.8,0,0,0,0,0,0,1005.6,1019.3
204,2023-09-25T03:23:00,0.5,北西,1.2,西北西,19.4,92.2,0,0,0,0,0,0,1005.6,1019.3
205,2023-09-25T03:24:00,0.4,北北西,1.1,西,19.3,92.1,0,0,0,0,0,0,1005.5,1019.2
206,2023-09-25T03:25:00,0.3,北北西,1.1,西,19.3,92.3,0,0,0,0,0,0,1005.5,1019.2
207,2023-09-25T03:26:00,0.3,北,1,西北西,19.3,92.5,0,0,0,0,0,0,1005.5,1019.2
208,2023-09-25T03:27:00,0.3,北,0.9,北北東,19.3,92.7,0,0,0,0,0,0,1005.5,1019.2
209,2023-09-25T03:28:00,0.3,北,1.1,北北東,19.2,92.8,0,0,0,0,0,0,1005.5,1019.2
210,2023-09-25T03:29:00,0.3,北北東,1.3,北北東,19.2,92.9,0,0,0,0,0,0,1005.4,1019.1
211,2023-09-25T03:30:00,0.4,北北東,1.4,北東,19.3,93,0,0,0,0,0,0,1005.4,1019.1
212,2023-09-25T03:31:00,0.5,北北東,1.8,北北東,19.3,93.2,0,0,0,0,0,0,1005.4,1019.1
213,2023-09-25T03:32:00,0.6,北北東,1.8,北北東,19.3,93.4,0,0,0,0,0,0,1005.4,1019.1
214,2023-09-25T03:33:00,0.8,北北東,1.8,北北東,19.4,93.6,0,0,0,0,0,0,1005.4,1019.1
215,2023-09-25T03:34:00,0.9,北北東,1.8,北北東,19.4,93.4,0,0,0,0,0,0,1005.3,1019
216,2023-09-25T03:35:00,1,北北東,2,北,19.6,93.6,0,0,0,0,0,0,1005.3,1019
217,2023-09-25T03:36:00,1.1,北北東,2,北,19.4,93.2,0,0,0,0,0,0,1005.3,1019
218,2023-09-25T03:37:00,1.2,北北東,2.7,北,19.3,92.5,0,0,0,0,0,0,1005.3,1019
219,2023-09-25T03:38:00,1.3,北北東,2.7,北,19.3,92.4,0,0,0,0,0,0,1005.3,1019
220,2023-09-25T03:39:00,1.4,北北東,2.9,北北東,19.2,92.3,0,0,0,0,0,0,1005.3,1019
221,2023-09-25T03:40:00,1.5,北北東,3,北北東,19.2,92.5,0,0,0,0,0,0,1005.3,1019
222,2023-09-25T03:41:00,1.6,北北東,3,北北東,19.3,92.6,0,0,0,0,0,0,1005.3,1019
223,2023-09-25T03:42:00,1.6,北北東,3,北北東,19.2,92.6,0,0,0,0,0,0,1005.3,1019
224,2023-09-25T03:43:00,1.6,北北東,3,北北東,19.2,92.8,0,0,0,0,0,0,1005.4,1019.1
225,2023-09-25T03:44:00,1.6,北北東,3,北北東,19.3,93,0,0,0,0,0,0,1005.4,1019.1
226,2023-09-25T03:45:00,1.5,北北東,3,北北東,19.2,93.2,0,0,0,0,0,0,1005.4,1019.1
227,2023-09-25T03:46:00,1.5,北北東,3,北北東,19.1,93,0,0,0,0,0,0,1005.4,1019.1
228,2023-09-25T03:47:00,1.4,北,3,北北東,19.1,92.8,0,0,0,0,0,0,1005.3,1019
229,2023-09-25T03:48:00,1.4,北,3,北北東,19.1,93.1,0,0,0,0,0,0,1005.3,1019
230,2023-09-25T03:49:00,1.3,北,3,北北東,19.1,93.1,0,0,0,0,0,0,1005.3,1019
231,2023-09-25T03:50:00,1.3,北,2.6,北北東,19,93.4,0,0,0,0,0,0,1005.2,1018.9
232,2023-09-25T03:51:00,1.3,北,2.6,北北東,19.1,93.5,0,0,0,0,0,0,1005.2,1018.9
233,2023-09-25T03:52:00,1.3,北,2.6,北北東,19.2,94,0,0,0,0,0,0,1005.2,1018.9
234,2023-09-25T03:53:00,1.4,北,2.6,北北東,19.1,93.9,0,0,0,0,0,0,1005.2,1018.9
235,2023-09-25T03:54:00,1.4,北,2.6,北北東,19.3,93.9,0,0,0,0,0,0,1005.3,1019
236,2023-09-25T03:55:00,1.4,北,2.6,北北東,19.2,94,0,0,0,0,0,0,1005.3,1019
237,2023-09-25T03:56:00,1.5,北,2.6,北北東,19.1,93.2,0,0,0,0,0,0,1005.3,1019
238,2023-09-25T03:57:00,1.5,北,2.6,北北東,19,93.2,0,0,0,0,0,0,1005.3,1019
239,2023-09-25T03:58:00,1.4,北,2.6,北北東,18.9,93.1,0,0,0,0,0,0,1005.3,1019
240,2023-09-25T03:59:00,1.4,北北西,2.6,北北東,18.9,93.4,0,0,0,0,0,0,1005.3,1019
241,2023-09-25T04:00:00,1.4,北北西,2.6,北西,18.9,93.6,0,0,0,0,0,0,1005.3,1019
242,2023-09-25T04:01:00,1.4,北西,2.6,北西,19,93.9,0,0,0,0,0,0,1005.3,1019
243,2023-09-25T04:02:00,1.4,北西,2.6,北西,18.9,94,0,0,0,0,0,0,1005.3,1019
244,2023-09-25T04:03:00,1.4,北西,2.6,北西,18.9,94.1,0,0,0,0,0,0,1005.3,1019
245,2023-09-25T04:04:00,1.4,西北西,2.6,北西,18.8,94.2,0,0,0,0,0,0,1005.3,1019
246,2023-09-25T04:05:00,1.5,西北西,2.6,北西,18.8,94.4,0,0,0,0,0,0,1005.3,1019
247,2023-09-25T04:06:00,1.6,西北西,2.8,西,18.6,94.2,0,0,0,0,0,0,1005.3,1019
248,2023-09-25T04:07:00,1.8,西北西,3.1,西,18.5,94,0,0,0,0,0,0,1005.4,1019.1
249,2023-09-25T04:08:00,2,西北西,3.5,西,18.4,94.2,0,0,0,0,0,0,1005.4,1019.1
250,2023-09-25T04:09:00,2.2,西北西,3.5,西,18.3,94.6,0,0,0,0,0,0,1005.4,1019.1
251,2023-09-25T04:10:00,2.3,西,3.7,西,18.3,94.9,0,0,0,0,0,0,1005.4,1019.1
252,2023-09-25T04:11:00,2.4,西,3.7,西,18.3,95.3,0,0,0,0,0,0,1005.4,1019.1
253,2023-09-25T04:12:00,2.6,西,4.4,西,18.2,95.6,0,0,0,0,0,0,1005.4,1019.1
254,2023-09-25T04:13:00,2.6,西,4.4,西,18.2,95.7,0,0,0,0,0,0,1005.4,1019.1
255,2023-09-25T04:14:00,2.7,西,4.4,西,18.3,96,0,0,0,0,0,0,1005.4,1019.1
256,2023-09-25T04:15:00,2.7,西,4.4,西,18.2,96,0,0,0,0,0,0,1005.5,1019.2
257,2023-09-25T04:16:00,2.6,西,4.4,西,18.2,96.1,0,0,0,0,0,0,1005.5,1019.2
258,2023-09-25T04:17:00,2.5,西,4.4,西,18.3,96.3,0,0,0,0,0,0,1005.5,1019.2
259,2023-09-25T04:18:00,2.3,西,4.4,西,18.3,96.5,0,0,0,0,0,0,1005.5,1019.2
260,2023-09-25T04:19:00,2.2,西,4.4,西,18.5,96.6,0,0,0,0,0,0,1005.5,1019.2
261,2023-09-25T04:20:00,2,西,4.4,西,18.5,96.7,0,0,0,0,0,0,1005.5,1019.2
262,2023-09-25T04:21:00,1.8,西,4.4,西,18.5,96.8,0,0,0,0,0,0,1005.5,1019.2
263,2023-09-25T04:22:00,1.6,西北西,3.8,西,18.6,96.7,0,0,0,0,0,0,1005.5,1019.2
264,2023-09-25T04:23:00,1.4,西北西,3.5,西,18.8,96.8,0,0,0,0,0,0,1005.5,1019.2
265,2023-09-25T04:24:00,1.3,西北西,2.4,西北西,18.8,96.8,0,0,0,0,0,0,1005.5,1019.2
266,2023-09-25T04:25:00,1.2,北西,2.3,西,18.8,96.6,0,0,0,0,0,0,1005.5,1019.2
267,2023-09-25T04:26:00,1.1,北西,2.3,西,18.9,96.5,0,0,0,0,0,0,1005.5,1019.2
268,2023-09-25T04:27:00,1,北西,2.1,西北西,18.9,96.3,0,0,0,0,0,0,1005.5,1019.2
269,2023-09-25T04:28:00,0.9,北西,1.8,西北西,18.9,96.1,0,0,0,0,0,0,1005.4,1019.1
270,2023-09-25T04:29:00,0.8,北北西,1.8,西北西,18.9,95.9,0,0,0,0,0,0,1005.4,1019.1
271,2023-09-25T04:30:00,0.7,北北西,1.6,西北西,18.9,95.6,0,0,0,0,0,0,1005.4,1019.1
272,2023-09-25T04:31:00,0.7,北,1.6,西北西,18.9,95.6,0,0,0,0,0,0,1005.4,1019.1
273,2023-09-25T04:32:00,0.6,北,1.5,北西,19,95.5,0,0,0,0,0,0,1005.4,1019.1
274,2023-09-25T04:33:00,0.6,北,1.5,北西,18.9,95.4,0,0,0,0,0,0,1005.4,1019.1
275,2023-09-25T04:34:00,0.6,北,1.5,北西,18.8,95.2,0,0,0,0,0,0,1005.5,1019.2
276,2023-09-25T04:35:00,0.6,北北東,1.5,北西,18.8,95.1,0,0,0,0,0,0,1005.4,1019.1
277,2023-09-25T04:36:00,0.5,北北東,1.5,北西,18.8,95.1,0,0,0,0,0,0,1005.4,1019.1
278,2023-09-25T04:37:00,0.4,北東,1.1,北東,18.8,95.1,0,0,0,0,0,0,1005.4,1019.1
279,2023-09-25T04:38:00,0.4,北東,1.1,北東,18.7,94.9,0,0,0,0,0,0,1005.4,1019.1
280,2023-09-25T04:39:00,0.4,北東,1.1,北東,18.6,94.7,0,0,0,0,0,0,1005.4,1019.1
281,2023-09-25T04:40:00,0.4,北東,1.1,北東,18.6,94.9,0,0,0,0,0,0,1005.4,1019.1
282,2023-09-25T04:41:00,0.4,北東,0.9,北,18.7,95.3,0,0,0,0,0,0,1005.4,1019.1
283,2023-09-25T04:42:00,0.4,北東,0.9,北,18.7,95.4,0,0,0,0,0,0,1005.4,1019.1
284,2023-09-25T04:43:00,0.4,北東,1.1,西北西,18.8,95.5,0,0,0,0,0,0,1005.4,1019.1
285,2023-09-25T04:44:00,0.4,北北東,1.1,西北西,18.8,95.5,0,0,0,0,0,0,1005.4,1019.1
286,2023-09-25T04:45:00,0.4,北北東,1.2,北西,18.7,95.4,0,0,0,0,0,0,1005.5,1019.2
287,2023-09-25T04:46:00,0.4,北,1.2,北西,18.7,95.5,0,0,0,0,0,0,1005.5,1019.2
288,2023-09-25T04:47:00,0.4,北,1.2,北西,18.7,95.3,0,0,0,0,0,0,1005.5,1019.2
289,2023-09-25T04:48:00,0.4,北北西,1.2,北西,18.6,95.4,0,0,0,0,0,0,1005.5,1019.2
290,2023-09-25T04:49:00,0.4,北北西,1.2,北西,18.8,95.5,0,0,0,0,0,0,1005.5,1019.2
291,2023-09-25T04:50:00,0.4,北北西,1.2,北西,18.7,95.4,0,0,0,0,0,0,1005.5,1019.2
292,2023-09-25T04:51:00,0.4,北北西,1.3,西北西,18.7,95.5,0,0,0,0,0,0,1005.5,1019.2
293,2023-09-25T04:52:00,0.4,北西,1.3,西北西,18.7,95.5,0,0,0,0,0,0,1005.5,1019.2
294,2023-09-25T04:53:00,0.5,北西,1.3,西北西,18.7,95.5,0,0,0,0,0,0,1005.5,1019.2
295,2023-09-25T04:54:00,0.5,北西,1.3,西北西,18.7,95.5,0,0,0,0,0,0,1005.5,1019.2
296,2023-09-25T04:55:00,0.5,北西,1.3,西北西,18.7,95.5,0,0,0,0,0,0,1005.5,1019.2
297,2023-09-25T04:56:00,0.5,西北西,1.3,西北西,18.7,95.5,0,0,0,0,0,0,1005.5,1019.2
298,2023-09-25T04:57:00,0.6,西北西,1.3,西北西,18.7,95.4,0,0,0,0,0,0,1005.5,1019.2
299,2023-09-25T04:58:00,0.6,西北西,1.3,西北西,18.7,95.4,0,0,0,0,0,0,1005.5,1019.2
300,2023-09-25T04:59:00,0.7,西北西,1.3,西北西,18.7,95.5,0,0,0,0,0,0,1005.6,1019.3
301,2023-09-25T05:00:00,0.8,西北西,1.3,西北西,18.8,95.6,0,0,0,0,0,0,1005.6,1019.3
302,2023-09-25T05:01:00,0.8,西,1.5,西南西,18.7,95.6,0,0,0,0,0,0,1005.6,1019.3
303,2023-09-25T05:02:00,0.9,西,1.5,西南西,18.9,95.7,0,0,0,0,0,0,1005.6,1019.3
304,2023-09-25T05:03:00,0.9,西,1.5,西南西,18.9,95.6,0,0,0,0,0,0,1005.6,1019.3
305,2023-09-25T05:04:00,0.9,西,1.5,西南西,18.8,95.5,0,0,0,0,0,0,1005.6,1019.3
306,2023-09-25T05:05:00,0.9,西,1.5,西南西,18.8,95.3,0,0,0,0,0,0,1005.6,1019.3
307,2023-09-25T05:06:00,0.9,西,1.5,西南西,18.9,95.4,0,0,0,0,0,0,1005.6,1019.3
308,2023-09-25T05:07:00,1,西,1.5,西南西,18.9,95.3,0,0,0,0,0,0,1005.5,1019.2
309,2023-09-25T05:08:00,1,西北西,1.5,西南西,18.9,95.2,0,0,0,0,0,0,1005.6,1019.3
310,2023-09-25T05:09:00,0.9,西北西,1.5,西南西,18.9,95.2,0,0,0,0,0,0,1005.6,1019.3
311,2023-09-25T05:10:00,0.9,西北西,1.5,西南西,18.9,95.1,0,0,0,0,0,0,1005.6,1019.3
312,2023-09-25T05:11:00,0.9,西北西,1.3,西,19,95.2,0,0,0,0,0,0,1005.6,1019.3
313,2023-09-25T05:12:00,0.8,西北西,1.2,西,18.8,94.8,0,0,0,0,0,0,1005.6,1019.3
314,2023-09-25T05:13:00,0.8,西北西,1,西北西,18.8,94.4,0,0,0,0,0,0,1005.7,1019.4
315,2023-09-25T05:14:00,0.8,西北西,1.2,西北西,18.7,94.5,0,0,0,0,0,0,1005.7,1019.4
316,2023-09-25T05:15:00,0.9,西北西,1.2,西北西,19,94.9,0,0,0,0,0,0,1005.7,1019.4
317,2023-09-25T05:16:00,0.9,西北西,1.2,西北西,18.9,95.1,0,0,0,0,0,0,1005.7,1019.4
318,2023-09-25T05:17:00,0.9,西北西,1.2,西北西,18.9,95,0,0,0,0,0,0,1005.7,1019.4
319,2023-09-25T05:18:00,0.9,西北西,1.2,西北西,18.9,94.7,0,0,0,0,0,0,1005.7,1019.4
320,2023-09-25T05:19:00,0.9,西北西,1.2,西北西,18.8,94.6,0,0,0,0,0,0,1005.8,1019.5
321,2023-09-25T05:20:00,0.9,西北西,1.2,西北西,18.8,94.4,0,0,0,0,0,0,1005.8,1019.5
322,2023-09-25T05:21:00,0.9,西北西,1.2,西北西,18.7,94.4,0,0,0,0,0,0,1005.8,1019.5
323,2023-09-25T05:22:00,0.8,西北西,1.2,西北西,18.7,94.4,0,0,0,0,0,0,1005.8,1019.5
324,2023-09-25T05:23:00,0.8,西北西,1.2,西北西,18.8,94.7,0,0,0,0,0,0,1005.8,1019.5
325,2023-09-25T05:24:00,0.7,北西,1.2,西北西,19,95,0,0,0,0,0,0,1005.8,1019.5